Preview of NWS' New Version of Forecast
This preview is not operational and should not be used for support decisions.

Regional Weather Roundup (RWR)

Issued by National Weather Service (NWS)

                            
000
ASUS45 KBOI 191710
RWRID 

IDAHO REGIONAL WEATHER ROUNDUP
NATIONAL WEATHER SERVICE BOISE ID
1100 AM MDT SUN MAY 19 2019

NOTE: "FAIR" INDICATES FEW OR NO CLOUDS BELOW 12000 FEET
WITH NO SIGNIFICANT WEATHER AND/OR OBSTRUCTIONS TO VISIBILITY

IDZ012-014-191800-
SOUTHWEST IDAHO

  
CITY           SKY/WX    TMP DP  RH WIND       PRES   REMARKS
BOISE          CLOUDY    55  46  71 SE18G25   29.60F                  
CALDWELL       LGT RAIN  54  50  86 E5        29.62S                  
MOUNTAIN HOME  LGT RAIN  50  50 100 SE13      29.61F                  
$$

IDZ016-017-191800-
SOUTHCENTRAL IDAHO

  
CITY           SKY/WX    TMP DP  RH WIND       PRES   REMARKS
BURLEY         LGT RAIN  49  44  83 NE5       29.63F                  
JEROME         LGT RAIN  51  45  79 E17G28    29.62F                  
TWIN FALLS     LGT RAIN  50  47  89 E15       29.61F                  
$$

IDZ019>023-191800-
SOUTHEAST IDAHO

  
CITY           SKY/WX    TMP DP  RH WIND       PRES   REMARKS
IDAHO FALLS    FAIR      53  35  50 SW7       29.73F                  
POCATELLO      CLOUDY    53  38  56 E12       29.69F                  
REXBURG        FAIR      54  37  52 E3        29.74F                  
$$

IDZ006-010-011-018-031-032-191800-
CENTRAL IDAHO MOUNTAINS

  
CITY           SKY/WX    TMP DP  RH WIND       PRES   REMARKS
MCCALL         PTSUNNY   55  34  45 NE10      29.62F                  
HAILEY         DRIZZLE   48  39  71 E17G26    29.69F                  
STANLEY          N/A     48  32  53 VRB5      29.68F                  
SALMON         FAIR      54  35  48 E3        29.73F                  
CHALLIS        CLOUDY    54  39  57 N9        29.68F                  
$$

IDZ002-004-006-007-026-191800-
NORTHERN IDAHO

  
CITY           SKY/WX    TMP DP  RH WIND       PRES   REMARKS
LEWISTON       FAIR      59  46  62 W5        29.66F                  
LOWELL           N/A     61  44  53 CALM      29.66F                  
COEUR D'ALENE  FAIR      56  39  53 NE18      29.76F                  
MULLAN PASS    CLOUDY    34  31  88 VRB7      29.80S WCI  28          
$$